Location: Kuppenheim
(48.8299°N, 8.2568°E)
Time: 08:48:13
(UTC+00:00)

ADEOS Rocket - Pass Details

Date: 20 June 2021
Orbit: 858 x 1307 km, 98.7° (Epoch: 02 August)

Event Time Altitude Azimuth Distance (km) Brightness Sun altitude
Exits shadow 02:32:25 - 191° (S) 3,939 5.6 -6.9°
Reaches altitude 10° 02:34:42 10° 198° (SSW) 3,168 5.1 -6.7°
Maximum altitude 02:41:20 38° 264° (W) 1,683 3.9 -5.9°
Drops below altitude 10° 02:47:28 10° 331° (NNW) 2,903 5.7 -5.2°
Sets 02:50:06 0° 340° (NNW) 3,795 6.4 -4.9°
